Flag for Malaysia Weather past 2 weeks in Kuching, Malaysia

Now
86 °F

Partly cloudy.


Feels Like: 95 °F
Forecast: 77 / 90 °F
Wind: 7 mph from North

Location: Kuching Airport

Current Time: Sep 18, 2014 at 8:00:33 PM

Latest Report: Sep 18, 2014 at 7:30 PM


Visibility: 5 mi

Pressure: 29.83 "Hg

Humidity: 70%

Dew point: 75 °F

Location of KuchingLocation

Historic Weather in Kuching — Graph

°F

Kuching temperature yesterday

Maximum temperature yesterday: 93 °F (at 2:30 PM)
Minimum temperature yesterday: 75 °F (at 6:30 AM)
Average temperature yesterday: 84 °F

Past Weeks' High & Low Weather Summary

 TemperatureHumidityPressure
High95 °F (Sep 5, 4:00 PM)100% (Sep 4, 11:30 PM)29.95 "Hg (Sep 4, 11:30 PM)
Low72 °F (Sep 6, 11:00 PM)39% (Sep 5, 4:30 PM)29.65 "Hg (Sep 16, 3:30 PM)
Average81 °F79%29.81 "Hg
* Reported Sep 3 7:00 PM — Sep 18 7:00 PM, Kuching, Weather by CustomWeather, © 2014

Note: Actual official high and low records may vary slightly from our data, if they occured in-between our weather recording intervals... More about our weather records

Advertising

Kuching weather history for previous 24 hours

 ConditionsComfort  
Time TempWeatherWind HumidityBarometerVisibility
7:00 PM
Sep 18
86 °FPassing clouds.5 mph79%29.83 "Hg5 mi
6:30 PM88 °FBroken clouds.2 mph70%29.80 "Hg5 mi
6:00 PM88 °FBroken clouds.5 mph70%29.80 "Hg5 mi
5:30 PM88 °FBroken clouds.6 mph70%29.77 "Hg5 mi
5:00 PM88 °FBroken clouds.7 mph70%29.77 "Hg5 mi
4:30 PM90 °FBroken clouds.6 mph67%29.74 "Hg5 mi
4:00 PM90 °FBroken clouds.7 mph67%29.74 "Hg4 mi
3:30 PM93 °FBroken clouds.1 mph56%29.74 "Hg4 mi
3:00 PM91 °FBroken clouds.5 mph59%29.77 "Hg4 mi
2:30 PM91 °FBroken clouds.3 mph59%29.77 "Hg4 mi
2:00 PM91 °FBroken clouds.5 mph63%29.80 "Hg4 mi
1:30 PM90 °FBroken clouds.6 mph67%29.80 "Hg4 mi
1:00 PM90 °FBroken clouds.3 mph67%29.83 "Hg4 mi
12:30 PM88 °FBroken clouds.3 mph75%29.86 "Hg4 mi
12:00 PM88 °FBroken clouds.6 mph70%29.86 "Hg4 mi
11:30 AM86 °FBroken clouds.7 mph75%29.89 "Hg5 mi
11:00 AM86 °FBroken clouds.8 mph79%29.89 "Hg4 mi
10:30 AM84 °FBroken clouds.6 mph84%29.89 "Hg4 mi
10:00 AM84 °FBroken clouds.7 mph79%29.89 "Hg4 mi
9:30 AM84 °FThunderstorms. Broken clouds.1 mph79%29.89 "Hg3 mi
9:00 AM81 °FThunderstorms. Broken clouds.3 mph84%29.89 "Hg2 mi
8:30 AM79 °FThunderstorms. Broken clouds.3 mph89%29.89 "Hg2 mi
8:00 AM81 °FThunderstorms. Broken clouds.1 mph84%29.86 "Hg2 mi
7:30 AM79 °FLight rain. Broken clouds.1 mph89%29.86 "Hg2 mi
7:00 AM79 °FBroken clouds.2 mph94%29.83 "Hg3 mi
6:30 AM79 °FBroken clouds.2 mph94%29.83 "Hg3 mi
6:00 AM79 °FPassing clouds.3 mph94%29.80 "Hg2 mi
5:30 AM79 °FPassing clouds.2 mph94%29.80 "Hg4 mi
5:00 AM79 °FPassing clouds.No wind94%29.80 "Hg4 mi
4:30 AM81 °FPartly cloudy.1 mph89%29.80 "Hg4 mi
4:00 AM81 °FPartly cloudy.1 mph89%29.80 "Hg4 mi
3:30 AM81 °FThunderstorms. Partly cloudy.1 mph89%29.80 "Hg4 mi
3:00 AM81 °FThunderstorms. Partly cloudy.3 mph89%29.80 "Hg4 mi
2:30 AM81 °FThunderstorms. Partly cloudy.3 mph89%29.80 "Hg4 mi
2:00 AM81 °FThunderstorms. Partly cloudy.3 mph89%29.83 "Hg4 mi
1:30 AM81 °FPartly cloudy.5 mph94%29.83 "Hg4 mi
1:00 AM81 °FPartly cloudy.3 mph94%29.83 "Hg4 mi
12:30 AM82 °FPassing clouds.1 mph89%29.83 "Hg4 mi
12:00 AM81 °FPartly cloudy.No wind94%29.83 "Hg4 mi
11:30 PM
Sep 17
81 °FPartly cloudy.1 mph89%29.83 "Hg4 mi
11:00 PM81 °FPartly cloudy.2 mph94%29.83 "Hg4 mi
10:30 PM82 °FPartly cloudy.2 mph89%29.83 "Hg4 mi
10:00 PM84 °FPassing clouds.2 mph84%29.83 "Hg4 mi
9:30 PM84 °FPartly cloudy.3 mph84%29.83 "Hg3 mi
9:00 PM84 °FPartly cloudy.3 mph84%29.80 "Hg3 mi
8:30 PM84 °FPartly cloudy.6 mph84%29.80 "Hg3 mi
8:00 PM86 °FPartly cloudy.6 mph79%29.77 "Hg3 mi
Weather by CustomWeather, © 2014

See weather overviewHow to use our weather pages